Retour au catalogue

STARLINK-5124

ActifCommunicationsVLEO
NORAD 54011·PAYLOAD·🇺🇸 United States

Lancé Oct 5, 2022 depuis Vandenberg Space Force Base

Loading…

Prochains Passages (prochaines 24 heures)

TLE

FraisSource: CelesTrak SupGP

Époque: Sep 14, 2026, 21:54 UTC

1 54011C 22125AZ  26257.91298611  .00025832  00000+0  76326-3 0  2575
2 54011  53.1598  63.5964 0001163  78.1294  89.6801 15.34376064    11

Suivez STARLINK-5124 en temps réel avec AllMySat

Download on the App Store